Location: Unspecified
(0.0000°N, 0.0000°E)
Time: 10:59:37
(UTC+00:00)

Vanguard 3 - Visible Passes

Search period start: 23 January 2021 00:00
Search period end: 02 February 2021 00:00
Orbit: 508 x 3262 km, 33.3° (Epoch: 22 January)

Date Brightness Start Highest point End Pass type
(mag) Time Alt. Az. Time Alt. Az. Time Alt. Az.
27 Jan 9.6 20:59:00 10° SSW 21:00:26 15° SSW 21:00:26 15° SSW visible
28 Jan 9.2 19:44:56 10° SSW 19:48:43 15° SSE 19:50:35 13° SE visible
29 Jan 10.0 18:30:45 10° S 18:33:04 11° S 18:35:07 10° SSE visible
29 Jan 8.9 20:41:45 10° SW 20:45:19 25° SSW 20:45:19 25° SSW visible
30 Jan 10.5 05:40:44 10° N 05:45:33 14° NE 05:51:27 10° ENE visible
30 Jan 8.9 19:26:49 10° SSW 19:32:51 21° SSE 19:35:30 16° SE visible
30 Jan 10.2 21:40:02 10° WSW 21:40:05 10° WSW 21:40:05 10° WSW visible
31 Jan 8.1 20:24:32 10° SW 20:30:18 43° S 20:30:18 43° S visible
01 Feb 10.4 05:24:08 10° N 05:29:06 14° NE 05:35:20 10° ENE visible
01 Feb 8.8 19:08:58 10° SSW 19:16:53 30° SSE 19:20:32 17° ESE visible
01 Feb 9.8 21:23:31 10° WSW 21:25:07 17° WSW 21:25:07 17° WSW visible
